STARLINK-11591, 63116

Orbit data source: Space-Track

STARLINK-11591, 63116 is a payload satellite owned by SpaceX/Seattle (US) in LEO that was launched on Thu, 27 Feb 2025 UTC via an FALCON 9 launch vehicle from the Air Force Eastern Test Range (AFETR). Payload-class satellites include a variety of spacecraft equipped with specific instruments for various scientific and technological missions. These include communications satellites like Starlink; space stations such as the ISS; scientific satellites like the Hubble; Earth observation satellites from companies like Planet Labs, Umbra, and HawkEye 360; GPS; miniature CubeSats for education and research; and military/defense satellites.

Loading next visibility...
Identifier
63116, 2025-039N
Orbit
LEO
Country
Flag of USUS
Related business
Manufacturer
SpaceX/Seattle
Mission
Operational Commercial Communications
Bus & Motor
STARLINK V2MD, Unknown motor
Mass
960 kg wet, ~910 kg dry
Launch date (UTC)
2025-02-27 (1 year ago)
Launch vehicle
FALCON 9
Launch site
Air Force Eastern Test Range (AFETR)
Object type
Payload
Rocket body
Debris
Shape & HBR
Box + 2 Pan, 18.1 m
Radar Cross Section
36.964 m², Large (>1 m²)

Expand to show TLE details & history
Last TLE update: 14 hours ago

TLE from 14 hours ago
0 STARLINK-11591
1 63116U 25039N   26171.46492498  .00146410  00000-0  11184-2 0  9992
2 63116  43.0006 336.9642 0002422 143.5341 216.5692 15.70968848 75780
Epoch: 2026-06-20T11:09Z
TLE epoch observation values (Epoch: 2026-06-20T11:09:29.518Z)
Latitude
-0.00001°
Longitude
-99.08796°
Altitude
357.208 km
Speed
7.696 km/s
True Right ascension
22h 27m 51s
True Declination
0° 00' 00"
Sunlit
Object was in full shadow at epoch
Visualization orbit readout
Latitude
Unknown
Longitude
Unknown
Altitude
Unknown
Speed
Unknown
Apparent Right ascension
Unknown
Apparent Declination
Unknown
Sunlit
N/A
Visualization observer readout
Local Sidereal Time
11:43:26
Azimuth
Unknown
Elevation
Unknown
Doppler factor
Unknown
Orbital elements
Apogee altitude
359.74 km
Perigee altitude
356.477 km
Semi-major axis
6,736.245 km
Eccentricity
0.00024
Inclination
43.0006°
RAAN
336.9642°
Arg. of periapsis
143.5341°
True anomaly
216.55267°
Mean anomaly
216.5692°
Eccentric anomaly
216.56093°
Mean motion
3.92569 °/min
Orbital period
91.7 mins
BSTAR
0.0011184
Loading maneuver chart data...
Computing Atmospheric mass density...
Loading historical data...
Loading historical data...
Loading historical data...
Loading historical data...
Loading historical data...
Loading historical data...
Loading historical data...

Documentation

Showing up to 5 results
|